| time (UTC) | temp F | wind direction | speed knots | gust knots | rain 1hr in | rain 24hr in | rain mn in | humidity % | barometer mb |
| 20260506173055 | 79 | 235 | 0.0 | 2.6 | 0.00 | 0.00 | 0.00 | 35 | 1013.0 |
| 20260506171547 | 79 | 331 | 1.7 | 4.3 | 0.00 | 0.00 | 0.00 | 38 | 1013.0 |
| 20260506170046 | 77 | 114 | 0.9 | 3.5 | 0.00 | 0.00 | 0.00 | 36 | 1013.1 |
| 20260506164547 | 76 | 149 | 0.0 | 6.1 | 0.00 | 0.00 | 0.00 | 37 | 1013.1 |
| 20260506163055 | 75 | 76 | 0.0 | 3.5 | 0.00 | 0.00 | 0.00 | 39 | 1013.2 |
| 20260506161537 | 75 | 98 | 0.9 | 2.6 | 0.00 | 0.00 | 0.00 | 41 | 1013.4 |
| 20260506160035 | 74 | 350 | 1.7 | 6.1 | 0.00 | 0.00 | 0.00 | 42 | 1013.6 |
| 20260506154536 | 73 | 94 | 0.0 | 5.2 | 0.00 | 0.00 | 0.00 | 43 | 1013.5 |
| 20260506153031 | 72 | 92 | 2.6 | 6.1 | 0.00 | 0.00 | 0.00 | 42 | 1013.7 |
| 20260506151528 | 70 | 152 | 0.9 | 6.1 | 0.00 | 0.00 | 0.00 | 45 | 1013.7 |
| 20260506150019 | 67 | 63 | 0.0 | 0.9 | 0.00 | 0.00 | 0.00 | 49 | 1013.8 |
| 20260506144516 | 64 | 64 | 0.0 | 1.7 | 0.00 | 0.00 | 0.00 | 54 | 1013.9 |
| 20260506143015 | 63 | 66 | 0.0 | 1.7 | 0.00 | 0.00 | 0.00 | 54 | 1013.8 |
| 20260506141513 | 61 | 68 | 0.0 | 0.9 | 0.00 | 0.00 | 0.00 | 55 | 1013.7 |
| 20260506140019 | 58 | 44 | 1.7 | 4.3 | 0.00 | 0.00 | 0.00 | 59 | 1013.9 |
| 20260506134511 | 57 | 256 | 0.9 | 1.7 | 0.00 | 0.00 | 0.00 | 63 | 1013.5 |
| 20260506133011 | 54 | 79 | 0.0 | 0.9 | 0.00 | 0.00 | 0.00 | 68 | 1013.4 |
| 20260506131517 | 52 | 77 | 0.0 | 0.9 | 0.00 | 0.00 | 0.00 | 70 | 1013.4 |
| 20260506130007 | 51 | 74 | 0.0 | 0.9 | 0.00 | 0.00 | 0.00 | 71 | 1013.1 |
| 20260506124505 | 50 | 73 | 0.0 | 0.9 | 0.00 | 0.00 | 0.00 | 71 | 1012.9 |
| 20260506123008 | 50 | 70 | 0.0 | 0.9 | 0.00 | 0.00 | 0.00 | 71 | 1013.0 |
| 20260506121503 | 51 | 70 | 0.0 | 0.9 | 0.00 | 0.00 | 0.00 | 71 | 1013.0 |
| 20260506120001 | 51 | 70 | 0.0 | 1.7 | 0.00 | 0.00 | 0.00 | 70 | 1012.9 |
| 20260506114559 | 51 | 173 | 0.0 | 2.6 | 0.00 | 0.00 | 0.00 | 70 | 1012.8 |
| 20260506113058 | 51 | 58 | 0.0 | 1.7 | 0.00 | 0.00 | 0.00 | 70 | 1012.8 |
| 20260506111558 | 51 | 58 | 0.0 | 1.7 | 0.00 | 0.00 | 0.00 | 69 | 1012.6 |
| 20260506104552 | 52 | 77 | 0.0 | 0.0 | 0.00 | 0.00 | 0.00 | 69 | 1012.4 |
| 20260506103049 | 52 | 78 | 0.0 | 0.0 | 0.00 | 0.00 | 0.00 | 69 | 1012.3 |
| 20260506101554 | 53 | 77 | 0.0 | 0.9 | 0.00 | 0.00 | 0.00 | 67 | 1012.3 |
| 20260506100041 | 55 | 78 | 0.0 | 0.9 | 0.00 | 0.00 | 0.00 | 64 | 1012.2 |
| 20260506094540 | 60 | 78 | 0.0 | 2.6 | 0.00 | 0.00 | 0.00 | 55 | 1012.3 |
| 20260506093043 | 62 | 110 | 0.9 | 4.3 | 0.00 | 0.00 | 0.00 | 52 | 1012.3 |
| 20260506091539 | 57 | 98 | 0.0 | 0.0 | 0.00 | 0.00 | 0.00 | 64 | 1012.3 |
| 20260506090044 | 56 | 108 | 0.0 | 1.7 | 0.00 | 0.00 | 0.00 | 66 | 1012.2 |
| 20260506084542 | 57 | 46 | 0.0 | 0.9 | 0.00 | 0.00 | 0.00 | 64 | 1012.1 |
| 20260506083033 | 58 | 45 | 0.0 | 0.0 | 0.00 | 0.00 | 0.00 | 63 | 1012.2 |
| 20260506081535 | 57 | 46 | 0.0 | 0.0 | 0.00 | 0.00 | 0.00 | 63 | 1012.1 |
| 20260506073019 | 63 | 98 | 0.0 | 0.9 | 0.00 | 0.00 | 0.00 | 50 | 1011.9 |
| 20260506071519 | 64 | 110 | 0.0 | 0.9 | 0.00 | 0.00 | 0.00 | 48 | 1011.9 |
| 20260506061511 | 69 | 114 | 0.0 | 1.7 | 0.00 | 0.00 | 0.00 | 39 | 1011.6 |
| 20260506044514 | 74 | 193 | 0.9 | 7.0 | 0.00 | 0.00 | 0.00 | 32 | 1011.2 |
| 20260506043006 | 74 | 193 | 1.7 | 4.3 | 0.00 | 0.00 | 0.00 | 33 | 1011.0 |
| 20260506041505 | 74 | 128 | 0.0 | 2.6 | 0.00 | 0.00 | 0.00 | 37 | 1010.8 |
| 20260506040003 | 75 | 132 | 0.9 | 3.5 | 0.00 | 0.00 | 0.00 | 34 | 1010.5 |
| 20260506034503 | 77 | 113 | 0.9 | 3.5 | 0.00 | 0.00 | 0.00 | 30 | 1010.3 |
| 20260506033001 | 77 | 92 | 0.0 | 0.9 | 0.00 | 0.00 | 0.00 | 28 | 1010.1 |
| 20260506031501 | 78 | 78 | 0.0 | 2.6 | 0.00 | 0.00 | 0.00 | 31 | 1010.0 |
| 20260506030001 | 80 | 307 | 0.0 | 3.5 | 0.00 | 0.00 | 0.00 | 30 | 1009.8 |
| 20260506024609 | 81 | 33 | 0.0 | 3.5 | 0.00 | 0.00 | 0.00 | 29 | 1009.6 |
| 20260506023112 | 82 | 260 | 0.9 | 4.3 | 0.00 | 0.00 | 0.00 | 28 | 1009.4 |
| 20260506021603 | 82 | 38 | 0.0 | 5.2 | 0.00 | 0.00 | 0.00 | 27 | 1009.4 |
| 20260506020059 | 83 | 323 | 0.9 | 5.2 | 0.00 | 0.00 | 0.00 | 26 | 1009.2 |
| 20260506014558 | 84 | 29 | 0.9 | 4.3 | 0.00 | 0.00 | 0.00 | 25 | 1009.2 |
| 20260506013104 | 85 | 351 | 0.0 | 6.1 | 0.00 | 0.00 | 0.00 | 25 | 1009.2 |
| 20260506011605 | 85 | 302 | 1.7 | 6.1 | 0.00 | 0.00 | 0.00 | 24 | 1009.3 |
| 20260506010056 | 85 | 25 | 0.9 | 4.3 | 0.00 | 0.00 | 0.00 | 25 | 1009.3 |
| 20260506004559 | 85 | 11 | 1.7 | 5.2 | 0.00 | 0.00 | 0.00 | 25 | 1009.3 |
| 20260506003055 | 86 | 335 | 1.7 | 6.1 | 0.00 | 0.00 | 0.00 | 26 | 1009.3 |
| 20260506001558 | 84 | 47 | 3.5 | 6.1 | 0.00 | 0.00 | 0.00 | 25 | 1009.4 |
| 20260506000100 | 85 | 25 | 1.7 | 6.1 | 0.00 | 0.00 | 0.00 | 25 | 1009.4 |
| 20260505234553 | 86 | 116 | 2.6 | 5.2 | 0.00 | 0.00 | 0.00 | 24 | 1009.6 |
| 20260505233055 | 86 | 65 | 2.6 | 5.2 | 0.00 | 0.00 | 0.00 | 25 | 1009.8 |
| 20260505231552 | 86 | 337 | 2.6 | 5.2 | 0.00 | 0.00 | 0.00 | 24 | 1009.9 |
| 20260505230113 | 85 | 72 | 1.7 | 6.1 | 0.00 | 0.00 | 0.00 | 25 | 1010.0 |
| 20260505224547 | 85 | 39 | 0.0 | 10.4 | 0.00 | 0.00 | 0.00 | 24 | 1010.2 |
| 20260505223048 | 85 | 293 | 0.9 | 4.3 | 0.00 | 0.00 | 0.00 | 25 | 1010.3 |
| 20260505221555 | 84 | 32 | 0.9 | 6.1 | 0.00 | 0.00 | 0.00 | 26 | 1010.4 |
| 20260505220053 | 85 | 263 | 1.7 | 5.2 | 0.00 | 0.00 | 0.00 | 27 | 1010.4 |
| 20260505214544 | 84 | 224 | 0.0 | 5.2 | 0.00 | 0.00 | 0.00 | 23 | 1010.5 |
| 20260505213042 | 84 | 242 | 1.7 | 5.2 | 0.00 | 0.00 | 0.00 | 22 | 1010.6 |
| 20260505211549 | 84 | 335 | 1.7 | 5.2 | 0.00 | 0.00 | 0.00 | 23 | 1010.7 |
| 20260505210040 | 84 | 281 | 2.6 | 9.6 | 0.00 | 0.00 | 0.00 | 25 | 1010.8 |
| 20260505204538 | 83 | 253 | 2.6 | 5.2 | 0.00 | 0.00 | 0.00 | 24 | 1010.8 |
| 20260505203036 | 83 | 207 | 1.7 | 6.1 | 0.00 | 0.00 | 0.00 | 25 | 1010.9 |
| 20260505201535 | 82 | 77 | 0.0 | 7.0 | 0.00 | 0.00 | 0.00 | 25 | 1010.9 |
| 20260505200040 | 82 | 314 | 2.6 | 8.7 | 0.00 | 0.00 | 0.00 | 25 | 1011.2 |
| 20260505194533 | 82 | 281 | 0.0 | 2.6 | 0.00 | 0.00 | 0.00 | 25 | 1011.3 |
| 20260505193034 | 81 | 297 | 0.0 | 7.0 | 0.00 | 0.00 | 0.00 | 27 | 1011.4 |
| 20260505191537 | 81 | 200 | 2.6 | 7.8 | 0.00 | 0.00 | 0.00 | 26 | 1011.4 |
| 20260505190028 | 81 | 128 | 0.9 | 6.1 | 0.00 | 0.00 | 0.00 | 30 | 1011.4 |
| 20260505184528 | 80 | 226 | 2.6 | 8.7 | 0.00 | 0.00 | 0.00 | 29 | 1011.4 |
| 20260505183030 | 79 | 201 | 1.7 | 7.0 | 0.00 | 0.00 | 0.00 | 30 | 1011.6 |
| 20260505181524 | 79 | 222 | 1.7 | 7.0 | 0.00 | 0.00 | 0.00 | 32 | 1011.6 |
| 20260505180020 | 78 | 193 | 1.7 | 5.2 | 0.00 | 0.00 | 0.00 | 32 | 1011.6 |